Spokane, WA
on Thursday, November 15, 2012

Thursday
Previous Day Next Day
Daily Summary
 ActualAverageRecord
Temperature
Mean Temperature °F 36°F  
Max Temperature 42°F 42°F 60°F (1896)
Min Temperature 34°F 30°F -11°F (1955)
Degree Days
Heating Degree Days 27 29  
Month to date heating degree days 380 397  
Since 1 July heating degree days 986 1185  
Cooling Degree Days 0 0  
Month to date cooling degree days 0 0  
Year to date cooling degree days 535 450  
Moisture
Dew Point 34°F   
Average Humidity 90    
Maximum Humidity 100    
Minimum Humidity 79    
Precipitation
Precipitation 0.00 in 0.08 in 0.69 in (1915)
Month to date precipitation 1.15 1.07  
Year to date precipitation 16.65 13.03  
Snow
Snow 0.00 in 0.30 in 4.00 in (1930)
Month to date snowfall 5.9 2.2  
Since 1 July snowfall 5.9 2.3  
Since 1 September snowfall 5.9 2.3  
Snow Depth 0.00 in   
Wind
Wind Speed 7 mph   
Max Wind Speed 12 mph   
Max Gust Speed 14 mph   
Visibility 6 miles   
Events     

Key: T is trace of precipitation, MM is missing value
Source: NWS Daily Summary
Time(PST)TemperatureDew PointHumidity Pressure Visibility Wind DirectionWind SpeedGust SpeedPrecipitationEvents Conditions
12:53 AM 34.0°F 33.1°F 96% 30.36 in 0.2 miles NE 6.9 mph - N/A   Overcast
1:42 AM 33.8°F 33.8°F 100% 30.30 in 2.0 miles NNE 5.8 mph - N/A   Overcast
1:53 AM 34.0°F 33.1°F 96% 30.35 in 2.0 miles NE 6.9 mph - N/A   Overcast
2:53 AM 34.0°F 33.1°F 96% 30.34 in 3.0 miles NE 6.9 mph - N/A   Overcast
3:25 AM 33.8°F 33.8°F 100% 30.28 in 3.0 miles NE 4.6 mph - N/A   Overcast
3:53 AM 34.0°F 33.1°F 96% 30.33 in 3.0 miles NE 6.9 mph - N/A   Overcast
4:14 AM 33.8°F 33.8°F 100% 30.27 in 1.0 miles NE 6.9 mph - N/A   Overcast
4:53 AM 34.0°F 33.1°F 96% 30.32 in 3.0 miles NE 6.9 mph - N/A   Overcast
5:07 AM 33.8°F 33.8°F 100% 30.26 in 1.0 miles NE 5.8 mph - N/A   Overcast
5:28 AM 33.8°F 33.8°F 100% 30.26 in 0.5 miles NE 6.9 mph - N/A   Overcast
5:53 AM 34.0°F 33.1°F 96% 30.31 in 0.5 miles NNE 5.8 mph - N/A   Overcast
6:05 AM 33.8°F 33.8°F 100% 30.25 in 1.0 miles NNE 5.8 mph - N/A   Overcast
6:36 AM 33.8°F 33.8°F 100% 30.24 in 2.0 miles NE 4.6 mph - N/A   Overcast
6:53 AM 34.0°F 33.1°F 96% 30.30 in 2.0 miles NE 8.1 mph - N/A   Overcast
7:53 AM 35.1°F 33.1°F 92% 30.30 in 2.0 miles NE 5.8 mph - N/A   Overcast
8:07 AM 35.6°F 33.8°F 93% 30.24 in 3.0 miles NE 6.9 mph - N/A   Mostly Cloudy
8:53 AM 35.1°F 33.1°F 92% 30.29 in 3.0 miles NE 9.2 mph - N/A   Overcast
9:53 AM 36.0°F 34.0°F 93% 30.26 in 3.0 miles NE 9.2 mph - N/A   Mostly Cloudy
10:20 AM 37.4°F 35.6°F 93% 30.20 in 8.0 miles NE 8.1 mph - N/A   Mostly Cloudy
10:53 AM 39.0°F 35.1°F 86% 30.23 in 10.0 miles NE 9.2 mph - N/A   Scattered Clouds
11:53 AM 39.9°F 35.1°F 83% 30.19 in 10.0 miles ENE 9.2 mph - N/A   Mostly Cloudy
12:53 PM 39.9°F 35.1°F 83% 30.17 in 10.0 miles NE 9.2 mph - N/A   Mostly Cloudy
1:23 PM 41.0°F 35.6°F 81% 30.11 in 10.0 miles NE 5.8 mph - N/A   Mostly Cloudy
1:53 PM 41.0°F 36.0°F 82% 30.15 in 10.0 miles NNE 4.6 mph - N/A   Overcast
2:53 PM 41.0°F 36.0°F 82% 30.14 in 10.0 miles NNE 8.1 mph - N/A   Mostly Cloudy
3:37 PM 41.0°F 35.6°F 81% 30.05 in 10.0 miles NE 10.4 mph - N/A   Scattered Clouds
3:53 PM 39.9°F 36.0°F 86% 30.10 in 10.0 miles NNE 6.9 mph - N/A   Mostly Cloudy
4:45 PM 39.2°F 35.6°F 87% 30.05 in 10.0 miles NE 4.6 mph - N/A   Overcast
4:53 PM 39.0°F 35.1°F 86% 30.09 in 10.0 miles ENE 5.8 mph - N/A   Overcast
5:08 PM 39.2°F 35.6°F 87% 30.04 in 10.0 miles NE 5.8 mph - N/A   Overcast
5:53 PM 37.9°F 35.1°F 89% 30.08 in 10.0 miles North 4.6 mph - N/A   Mostly Cloudy
6:53 PM 37.0°F 34.0°F 89% 30.06 in 10.0 miles NE 4.6 mph - N/A   Mostly Cloudy
7:53 PM 37.0°F 34.0°F 89% 30.06 in 10.0 miles NE 5.8 mph - N/A   Overcast
8:53 PM 37.0°F 34.0°F 89% 30.05 in 10.0 miles NE 5.8 mph - N/A   Overcast
9:53 PM 36.0°F 33.1°F 89% 30.04 in 10.0 miles NE 5.8 mph - N/A   Overcast
10:53 PM 36.0°F 33.1°F 89% 30.03 in 10.0 miles ENE 3.5 mph - N/A   Mostly Cloudy
11:53 PM 35.1°F 33.1°F 92% 30.03 in 10.0 miles ENE 4.6 mph - N/A   Mostly Cloudy
Moon Phase
Nov. 15 Nov. 20 Nov. 28 Dec. 06 Dec. 13
Sunrise:06:56 AM (PST) Moon Rise:09:02 AM (PST)11/15
Sunset:04:12 PM (PST) Moon Set:06:04 PM (PST)11/15

Copyright © 2014 The Weather Underground, Inc.